Weather History for Delta, CO

Change the Weather History Date:

Monday, August 20, 2012

  Actual Average (KMTJ) Record (KMTJ)
Temperature  
Mean Temperature 76 °F 70 °F  
Max Temperature 88 °F 85 °F 91 °F (1997)
Min Temperature 65 °F 55 °F 50 °F (2004)
Degree Days  
Heating Degree Days 0 0  
Month to date heating degree days 0  
Since 1 June heating degree days 39  
Since 1 July heating degree days 0  
Cooling Degree Days 12 5  
Month to date cooling degree days 137  
Year to date cooling degree days 559  
Since 1 June cooling degree days 542  
Growing Degree Days 26 (Base 50)    
Moisture  
Dew Point 41 °F    
Average Humidity 29    
Maximum Humidity 46    
Minimum Humidity 21    
Precipitation  
Precipitation 0.00 in 0.03 in 0.41 in (2002)
Month to date precipitation 0.81  
Year to date precipitation 6.88  
Sea Level Pressure  
Sea Level Pressure 30.10 in    
Wind  
Wind Speed 5 mph ()    
Max Wind Speed 17 mph    
Max Gust Speed 24 mph    
Visibility 10.0 miles    
Events      
T = Trace of Precipitation, MM = Missing Value Source: Averaged Metar Reports

Daily Weather History Graph

Daily Weather History Graph

Search for Another Location

Airport:

Trip Planner

Search our weather history database for the weather conditions in past years. The results will help you decide how hot, cold, wet, or windy it might be!

Date:

Astronomy

Aug. 20, 2012 Rise Set
Actual Time 6:31 AM MDT 7:59 PM MDT
Civil Twilight 6:03 AM MDT 8:27 PM MDT
Nautical Twilight 5:29 AM MDT 9:00 PM MDT
Astronomical Twilight 4:53 AM MDT 9:36 PM MDT
Moon 9:53 AM MDT (8/20) 9:27 PM MDT (8/20)
Length of Visible Light 14h 24m
Length of Day
13h 28m
Waxing Crescent, 11% of the Moon is Illuminated
Aug 20
Waxing Crescent
Aug 24
First Quarter
Aug 31
Full
Sep 8
Last Quarter
Sep 15
New

Hourly Weather History & Observations

Time (MDT) Temp. Dew Point Humidity Pressure Visibility Wind Dir Wind Speed Gust Speed Precip Events Conditions
12:15 AM 74.3 °F 32.0 °F 21% 30.04 in 10.0 mi Calm Calm - N/A   Clear
12:35 AM 70.7 °F 33.4 °F 25% 30.04 in 10.0 mi ENE 5.8 mph - N/A   Clear
12:55 AM 70.2 °F 35.6 °F 28% 30.04 in 10.0 mi NNE 4.6 mph - N/A   Clear
1:15 AM 68.5 °F 37.2 °F 32% 30.04 in 10.0 mi NE 8.1 mph - N/A   Clear
1:35 AM 69.3 °F 31.8 °F 25% 30.05 in 10.0 mi ESE 4.6 mph - N/A   Clear
1:55 AM 66.2 °F 32.0 °F 28% 30.05 in 10.0 mi ENE 5.8 mph - N/A   Clear
2:15 AM 66.7 °F 30.6 °F 26% 30.05 in 10.0 mi ENE 6.9 mph - N/A   Clear
2:35 AM 68.4 °F 32.0 °F 26% 30.05 in 10.0 mi ENE 5.8 mph - N/A   Clear
2:55 AM 68.2 °F 32.9 °F 27% 30.06 in 10.0 mi ENE 6.9 mph - N/A   Clear
3:15 AM 67.6 °F 32.4 °F 27% 30.06 in 10.0 mi ENE 6.9 mph - N/A   Clear
3:35 AM 68.0 °F 32.0 °F 26% 30.06 in 10.0 mi ENE 4.6 mph - N/A   Clear
3:55 AM 68.0 °F 32.0 °F 26% 30.06 in 10.0 mi ENE 5.8 mph - N/A   Clear
4:15 AM 68.0 °F 32.0 °F 26% 30.06 in 10.0 mi East 4.6 mph - N/A   Clear
4:35 AM 67.8 °F 33.6 °F 28% 30.07 in 10.0 mi Calm Calm - N/A   Clear
4:55 AM 68.2 °F 33.8 °F 28% 30.07 in 10.0 mi Calm Calm - N/A   Scattered Clouds
5:15 AM 68.0 °F 34.2 °F 29% 30.07 in 10.0 mi Calm Calm - N/A   Scattered Clouds
5:35 AM 67.5 °F 37.2 °F 33% 30.08 in 10.0 mi SW 3.5 mph - N/A   Scattered Clouds
5:55 AM 65.5 °F 42.8 °F 44% 30.08 in 10.0 mi West 3.5 mph - N/A   Scattered Clouds
6:15 AM 66.2 °F 39.9 °F 38% 30.10 in 10.0 mi West 6.9 mph - N/A   Scattered Clouds
6:35 AM 66.7 °F 37.4 °F 34% 30.11 in 10.0 mi WSW 3.5 mph - N/A   Scattered Clouds
6:55 AM 67.3 °F 37.4 °F 33% 30.12 in 10.0 mi Calm Calm - N/A   Scattered Clouds
7:15 AM 67.3 °F 36.5 °F 32% 30.09 in 10.0 mi NE 9.2 mph - N/A   Scattered Clouds
7:35 AM 68.2 °F 35.6 °F 30% 30.10 in 10.0 mi NE 5.8 mph - N/A   Mostly Cloudy
7:55 AM 69.1 °F 36.7 °F 30% 30.12 in 10.0 mi SSW 6.9 mph - N/A   Mostly Cloudy
8:15 AM 66.6 °F 43.9 °F 44% 30.12 in 10.0 mi SSW 3.5 mph - N/A   Mostly Cloudy
8:35 AM 68.0 °F 41.0 °F 37% 30.12 in 10.0 mi NNW 4.6 mph - N/A   Overcast
8:55 AM 70.5 °F 38.8 °F 32% 30.12 in 10.0 mi North 6.9 mph - N/A   Overcast
9:15 AM 72.1 °F 37.6 °F 28% 30.13 in 10.0 mi ESE 4.6 mph - N/A   Overcast
9:35 AM 73.4 °F 36.9 °F 26% 30.13 in 10.0 mi East 4.6 mph - N/A   Overcast
9:55 AM 73.6 °F 36.7 °F 26% 30.13 in 10.0 mi ENE 5.8 mph - N/A   Mostly Cloudy
10:15 AM 73.6 °F 39.6 °F 29% 30.13 in 10.0 mi NNE 4.6 mph - N/A   Overcast
10:35 AM 75.7 °F 37.8 °F 25% 30.13 in 10.0 mi NE 5.8 mph - N/A   Mostly Cloudy
10:55 AM 76.6 °F 37.6 °F 24% 30.13 in 10.0 mi NE 5.8 mph - N/A   Mostly Cloudy
11:15 AM 77.9 °F 39.4 °F 25% 30.13 in 10.0 mi NNE 6.9 mph - N/A   Mostly Cloudy
11:35 AM 77.4 °F 43.9 °F 30% 30.14 in 10.0 mi NNE 5.8 mph - N/A   Mostly Cloudy
11:55 AM 79.2 °F 40.3 °F 25% 30.14 in 10.0 mi NNE 4.6 mph - N/A   Overcast
12:35 PM 80.2 °F 40.3 °F 24% 30.14 in 10.0 mi NNE 8.1 mph - N/A   Overcast
12:55 PM 80.1 °F 43.3 °F 27% 30.14 in 10.0 mi NNE 4.6 mph - N/A   Overcast
1:15 PM 81.9 °F 44.2 °F 27% 30.13 in 10.0 mi ENE 5.8 mph - N/A   Mostly Cloudy
1:35 PM 82.4 °F 44.2 °F 26% 30.13 in 10.0 mi Calm Calm - N/A   Mostly Cloudy
1:55 PM 83.5 °F 44.2 °F 25% 30.12 in 10.0 mi East 4.6 mph - N/A   Overcast
2:15 PM 83.8 °F 44.6 °F 25% 30.12 in 10.0 mi East 5.8 mph - N/A   Overcast
2:35 PM 84.2 °F 45.3 °F 26% 30.12 in 10.0 mi ENE 5.8 mph - N/A   Overcast
2:55 PM 86.7 °F 45.3 °F 24% 30.12 in 7.0 mi East 4.6 mph - N/A   Mostly Cloudy
3:15 PM 87.6 °F 45.1 °F 23% 30.11 in 10.0 mi ENE 5.8 mph - N/A   Overcast
3:35 PM 87.1 °F 44.6 °F 23% 30.10 in 10.0 mi SE 10.4 mph - N/A   Mostly Cloudy
3:55 PM 88.0 °F 46.0 °F 23% 30.10 in 10.0 mi East 17.3 mph 23.0 mph N/A   Scattered Clouds
4:15 PM 85.8 °F 45.7 °F 25% 30.09 in 10.0 mi East 15.0 mph 24.2 mph N/A   Scattered Clouds
4:35 PM 86.0 °F 45.7 °F 24% 30.09 in 10.0 mi East 12.7 mph 18.4 mph N/A   Clear
4:55 PM 86.2 °F 45.9 °F 24% 30.09 in 10.0 mi ESE 13.8 mph - N/A   Clear
5:15 PM 85.8 °F 45.0 °F 24% 30.08 in 10.0 mi East 6.9 mph - N/A   Clear
5:35 PM 85.5 °F 45.1 °F 24% 30.08 in 10.0 mi SE 8.1 mph - N/A   Clear
5:55 PM 85.3 °F 44.6 °F 24% 30.08 in 10.0 mi SSE 4.6 mph - N/A   Clear
6:15 PM 84.2 °F 45.0 °F 25% 30.08 in 10.0 mi SSE 3.5 mph - N/A   Clear
6:35 PM 84.2 °F 44.6 °F 25% 30.07 in 10.0 mi SE 3.5 mph - N/A   Clear
6:55 PM 84.4 °F 44.1 °F 24% 30.07 in 10.0 mi Calm Calm - N/A   Clear
7:15 PM 83.8 °F 44.6 °F 25% 30.07 in 10.0 mi ENE 3.5 mph - N/A   Clear
7:35 PM 82.8 °F 44.2 °F 26% 30.07 in 10.0 mi NE 4.6 mph - N/A   Clear
7:55 PM 80.6 °F 44.2 °F 28% 30.08 in 10.0 mi ENE 3.5 mph - N/A   Clear
8:15 PM 77.9 °F 45.0 °F 31% 30.08 in 10.0 mi NE 5.8 mph - N/A   Clear
8:35 PM 75.9 °F 45.9 °F 34% 30.08 in 10.0 mi North 5.8 mph - N/A   Clear
8:55 PM 74.8 °F 47.3 °F 38% 30.09 in 10.0 mi North 6.9 mph - N/A   Clear
9:15 PM 73.9 °F 46.8 °F 38% 30.10 in 10.0 mi NE 6.9 mph - N/A   Clear
9:35 PM 73.9 °F 44.4 °F 35% 30.11 in 10.0 mi NE 5.8 mph - N/A   Clear
9:55 PM 72.5 °F 44.8 °F 37% 30.11 in 10.0 mi East 6.9 mph - N/A   Clear
10:15 PM 71.8 °F 46.4 °F 40% 30.12 in 10.0 mi ENE 10.4 mph - N/A   Clear
10:55 PM 71.6 °F 46.0 °F 40% 30.13 in 10.0 mi ESE 8.1 mph - N/A   Clear
11:15 PM 69.4 °F 47.7 °F 46% 30.13 in 10.0 mi ENE 6.9 mph - N/A   Clear
11:35 PM 69.3 °F 46.9 °F 45% 30.13 in 10.0 mi NE 8.1 mph - N/A   Clear
11:55 PM 68.2 °F 46.8 °F 46% 30.14 in 10.0 mi NE 8.1 mph - N/A   Clear